WeatherOLA & Area Weather Station Summaries and History

Weather history for Indianola, Kingston, Poulsbo, Bainbridge Island, Silverdale other area weather stations. Select a station for detailed historical weather information of any date and time in five minute intervals. Great for looking up the timing of interesting weather events that are closest to you.

Station Historical Data
 
Daily Summary for July 20, 2018 Units:  English    Metric   Both
« Previous Day
Next Day »
Daily Weekly Monthly Yearly Custom
  Current: High: Low: Average:
Temperature: 69.8 °F 71.8 °F 54.1 °F 60.8 °F
Dew Point: 55.2 °F 56.8 °F 50.7 °F 53.8 °F
Humidity: 60% 89% 58% 79%
Wind Speed: 2.3mph 5mph 0mph 0.7mph
Wind Gust: 0.1mph 2mph - -
WindNorth - - South
Pressure: 30.1 in 30.2 in 30.1 in -
Precipitation: 0 in      
Historical Graphs
 
 
Tabular Data for July 20, 2018
Time Temperature Dew Point Pressure Wind Wind Speed Wind Gust Humidity Rainfall Rate (Hourly) solar Conditions
00:05 57 °F 54 °F 30.1 in NNE 1.2 mph   89% 0 in WeatherDisplay:10.37 W/m2 CLR
00:10 57 °F 54 °F 30.1 in NNE 1.2 mph   89% 0 in WeatherDisplay:10.37 W/m2 CLR
00:15 57 °F 53.8 °F 30.1 in NNE 1.2 mph   89% 0 in WeatherDisplay:10.37 W/m2 CLR
00:20 56.8 °F 53.4 °F 30.1 in NNE 1.2 mph   88% 0 in WeatherDisplay:10.37 W/m2 CLR
00:25 56.8 °F 53.4 °F 30.1 in NNE 1.2 mph   88% 0 in WeatherDisplay:10.37 W/m2 CLR
00:30 56.8 °F 53.2 °F 30.1 in Calm     88% 0 in WeatherDisplay:10.37 W/m2 CLR
00:34 56.7 °F 53.2 °F 30.1 in Calm     88% 0 in WeatherDisplay:10.37 W/m2 CLR
00:39 56.7 °F 52.9 °F 30.1 in Calm     87% 0 in WeatherDisplay:10.37 W/m2 CLR
00:44 56.5 °F 52.5 °F 30.1 in NNE 1.2 mph   87% 0 in WeatherDisplay:10.37 W/m2 CLR
00:49 56.3 °F 52.5 °F 30.1 in Calm   0.1 mph 87% 0 in WeatherDisplay:10.37 W/m2 CLR
00:54 56.1 °F 52.3 °F 30.1 in Calm     87% 0 in WeatherDisplay:10.37 W/m2 CLR
00:59 55.9 °F 52.2 °F 30.1 in Calm     87% 0 in WeatherDisplay:10.37 W/m2 CLR
01:05 55.9 °F 52.2 °F 30.1 in NNE 1.2 mph 0.1 mph 87% 0 in WeatherDisplay:10.37 W/m2 CLR
01:10 55.8 °F 52 °F 30.1 in Calm     87% 0 in WeatherDisplay:10.37 W/m2 CLR
01:15 55.8 °F 52 °F 30.1 in NNE 1.2 mph   87% 0 in WeatherDisplay:10.37 W/m2 CLR
01:19 55.6 °F 51.8 °F 30.1 in Calm     87% 0 in WeatherDisplay:10.37 W/m2 CLR
01:24 55.6 °F 51.6 °F 30.1 in Calm     87% 0 in WeatherDisplay:10.37 W/m2 CLR
01:29 55.4 °F 52 °F 30.1 in Calm     88% 0 in WeatherDisplay:10.37 W/m2 CLR
01:34 55.2 °F 51.6 °F 30.1 in Calm     88% 0 in WeatherDisplay:10.37 W/m2 CLR
01:39 55 °F 51.4 °F 30.1 in Calm     88% 0 in WeatherDisplay:10.37 W/m2 CLR
01:44 54.9 °F 51.4 °F 30.1 in Calm     88% 0 in WeatherDisplay:10.37 W/m2 CLR
01:49 54.9 °F 51.6 °F 30.1 in Calm   0.1 mph 89% 0 in WeatherDisplay:10.37 W/m2 CLR
01:54 54.7 °F 51.4 °F 30.1 in Calm     89% 0 in WeatherDisplay:10.37 W/m2 CLR
01:59 54.7 °F 51.4 °F 30.1 in Calm     89% 0 in WeatherDisplay:10.37 W/m2 CLR
02:05 54.5 °F 51.3 °F 30.1 in Calm     89% 0 in WeatherDisplay:10.37 W/m2 CLR
02:10 54.3 °F 51.3 °F 30.1 in Calm     89% 0 in WeatherDisplay:10.37 W/m2 CLR
02:15 54.3 °F 51.1 °F 30.1 in Calm     89% 0 in WeatherDisplay:10.37 W/m2 CLR
02:20 54.1 °F 51.1 °F 30.1 in Calm     89% 0 in WeatherDisplay:10.37 W/m2 CLR
02:25 54.1 °F 50.9 °F 30.1 in Calm     89% 0 in WeatherDisplay:10.37 W/m2 CLR
02:30 54.1 °F 50.9 °F 30.1 in Calm     89% 0 in WeatherDisplay:10.37 W/m2 CLR
02:34 54.1 °F 51.1 °F 30.1 in NNE 1.2 mph   89% 0 in WeatherDisplay:10.37 W/m2 CLR
02:40 54.1 °F 51.1 °F 30.1 in Calm     89% 0 in WeatherDisplay:10.37 W/m2 CLR
02:44 54.3 °F 51.1 °F 30.1 in Calm     89% 0 in WeatherDisplay:10.37 W/m2 CLR
02:49 54.3 °F 51.3 °F 30.1 in Calm     89% 0 in WeatherDisplay:10.37 W/m2 CLR
02:54 54.3 °F 50.7 °F 30.1 in Calm     88% 0 in WeatherDisplay:10.37 W/m2 CLR
02:59 54.3 °F 50.7 °F 30.1 in Calm     88% 0 in WeatherDisplay:10.37 W/m2 CLR
03:04 54.3 °F 50.7 °F 30.1 in Calm     88% 0 in WeatherDisplay:10.37 W/m2 CLR
03:09 54.1 °F 50.7 °F 30.1 in Calm     88% 0 in WeatherDisplay:10.37 W/m2 CLR
03:15 54.1 °F 51.1 °F 30.1 in Calm     89% 0 in WeatherDisplay:10.37 W/m2 CLR
03:20 54.3 °F 51.1 °F 30.1 in Calm     89% 0 in WeatherDisplay:10.37 W/m2 CLR
03:25 54.3 °F 51.1 °F 30.1 in Calm     89% 0 in WeatherDisplay:10.37 W/m2 CLR
03:29 54.3 °F 51.1 °F 30.1 in Calm     89% 0 in WeatherDisplay:10.37 W/m2 CLR
03:34 54.3 °F 51.3 °F 30.1 in Calm     89% 0 in WeatherDisplay:10.37 W/m2 CLR
03:39 54.3 °F 51.3 °F 30.1 in Calm     89% 0 in WeatherDisplay:10.37 W/m2 CLR
03:44 54.5 °F 51.3 °F 30.1 in Calm     89% 0 in WeatherDisplay:10.37 W/m2 CLR
03:49 54.7 °F 51.4 °F 30.1 in Calm     89% 0 in WeatherDisplay:10.37 W/m2 CLR
03:54 54.7 °F 51.4 °F 30.1 in Calm     89% 0 in WeatherDisplay:10.37 W/m2 CLR
03:59 54.7 °F 51.4 °F 30.1 in Calm     89% 0 in WeatherDisplay:10.37 W/m2 CLR
04:05 54.7 °F 51.4 °F 30.1 in Calm     89% 0 in WeatherDisplay:10.37 W/m2 CLR
04:09 54.7 °F 51.4 °F 30.1 in Calm     89% 0 in WeatherDisplay:10.37 W/m2 CLR
04:14 54.7 °F 51.4 °F 30.1 in Calm     89% 0 in WeatherDisplay:10.37 W/m2 CLR
04:20 54.7 °F 51.4 °F 30.1 in Calm     89% 0 in WeatherDisplay:10.37 W/m2 CLR
04:25 54.7 °F 51.4 °F 30.1 in NNE 1.2 mph 0.1 mph 89% 0 in WeatherDisplay:10.37 W/m2 CLR
04:30 54.9 °F 51.6 °F 30.1 in Calm     89% 0 in WeatherDisplay:10.37 W/m2 CLR
04:34 54.9 °F 51.6 °F 30.1 in Calm     89% 0 in WeatherDisplay:10.37 W/m2 CLR
04:39 54.9 °F 51.6 °F 30.1 in Calm     89% 0 in WeatherDisplay:10.37 W/m2 CLR
04:44 55 °F 51.8 °F 30.1 in NNE 1.2 mph   89% 0 in WeatherDisplay:10.37 W/m2 CLR
04:49 55 °F 51.8 °F 30.1 in Calm     89% 0 in WeatherDisplay:10.37 W/m2 CLR
04:54 55 °F 52 °F 30.1 in Calm     89% 0 in WeatherDisplay:10.37 W/m2 CLR
04:59 55 °F 52 °F 30.1 in Calm     89% 0 in WeatherDisplay:10.37 W/m2 CLR
05:05 55 °F 52 °F 30.1 in Calm     89% 0 in WeatherDisplay:10.37 W/m2 CLR
05:10 55 °F 52 °F 30.1 in Calm     89% 0 in WeatherDisplay:10.37 W/m2 CLR
05:14 55.2 °F 52 °F 30.1 in Calm     89% 0 in WeatherDisplay:10.37 W/m2 CLR
05:19 55.2 °F 52 °F 30.1 in Calm     89% 0 in WeatherDisplay:10.37 W/m2 CLR
05:24 55.2 °F 52 °F 30.1 in Calm     89% 0 in WeatherDisplay:10.37 W/m2 CLR
05:29 55.2 °F 52.2 °F 30.1 in Calm     89% 0 in WeatherDisplay:10.37 W/m2 CLR
05:34 55.2 °F 52.2 °F 30.1 in Calm     89% 0 in WeatherDisplay:10.37 W/m2 CLR
05:39 55.2 °F 52.2 °F 30.1 in Calm     89% 0 in WeatherDisplay:10.37 W/m2 CLR
05:44 55.4 °F 52.2 °F 30.1 in Calm     89% 0 in WeatherDisplay:10.37 W/m2 CLR
05:49 55.4 °F 52.2 °F 30.1 in Calm     89% 0 in WeatherDisplay:10.37 W/m2 CLR
05:54 55.4 °F 52.2 °F 30.1 in Calm     89% 0 in WeatherDisplay:10.37 W/m2 CLR
05:59 55.4 °F 52.2 °F 30.1 in Calm     89% 0 in WeatherDisplay:10.37 W/m2 CLR
06:04 55.6 °F 52.3 °F 30.1 in Calm     89% 0 in WeatherDisplay:10.37 W/m2 CLR
06:09 55.6 °F 52.3 °F 30.1 in Calm     89% 0 in WeatherDisplay:10.37 W/m2 CLR
06:14 55.8 °F 52.5 °F 30.1 in Calm     89% 0 in WeatherDisplay:10.37 W/m2 CLR
06:19 55.8 °F 52.2 °F 30.1 in Calm     88% 0 in WeatherDisplay:10.37 W/m2 CLR
06:24 55.8 °F 52.3 °F 30.1 in Calm     88% 0 in WeatherDisplay:10.37 W/m2 CLR
06:29 55.9 °F 52.3 °F 30.1 in Calm     88% 0 in WeatherDisplay:10.37 W/m2 CLR
06:34 55.9 °F 52.3 °F 30.1 in Calm     88% 0 in WeatherDisplay:10.37 W/m2 CLR
06:39 55.9 °F 52.5 °F 30.1 in Calm     88% 0 in WeatherDisplay:10.37 W/m2 CLR
06:44 56.1 °F 52.5 °F 30.1 in Calm     88% 0 in WeatherDisplay:10.37 W/m2 CLR
06:49 56.1 °F 52.7 °F 30.1 in Calm     88% 0 in WeatherDisplay:10.37 W/m2 CLR
06:54 56.3 °F 52.9 °F 30.1 in Calm     88% 0 in WeatherDisplay:10.37 W/m2 CLR
06:59 56.5 °F 52.5 °F 30.1 in Calm     87% 0 in WeatherDisplay:10.37 W/m2 CLR
07:05 56.5 °F 52.7 °F 30.1 in Calm     87% 0 in WeatherDisplay:10.37 W/m2 CLR
07:10 56.7 °F 52.9 °F 30.1 in Calm     87% 0 in WeatherDisplay:10.37 W/m2 CLR
07:15 56.7 °F 52.9 °F 30.1 in Calm     87% 0 in WeatherDisplay:10.37 W/m2 CLR
07:20 56.8 °F 53.1 °F 30.1 in Calm     87% 0 in WeatherDisplay:10.37 W/m2 CLR
07:25 56.8 °F 53.1 °F 30.2 in Calm     87% 0 in WeatherDisplay:10.37 W/m2 CLR
07:30 57 °F 52.9 °F 30.2 in Calm     86% 0 in WeatherDisplay:10.37 W/m2 CLR
07:35 57 °F 53.1 °F 30.2 in Calm     86% 0 in WeatherDisplay:10.37 W/m2 CLR
07:40 57.2 °F 53.1 °F 30.2 in Calm     86% 0 in WeatherDisplay:10.37 W/m2 CLR
07:45 57.4 °F 52.9 °F 30.2 in Calm     85% 0 in WeatherDisplay:10.37 W/m2 CLR
07:50 57.6 °F 53.1 °F 30.2 in Calm     85% 0 in WeatherDisplay:10.37 W/m2 CLR
07:55 57.6 °F 53.1 °F 30.2 in Calm     85% 0 in WeatherDisplay:10.37 W/m2 CLR
07:59 57.7 °F 53.2 °F 30.2 in Calm     85% 0 in WeatherDisplay:10.37 W/m2 CLR
08:04 57.7 °F 53.2 °F 30.2 in Calm     85% 0 in WeatherDisplay:10.37 W/m2 CLR
08:09 57.9 °F 53.4 °F 30.2 in Calm     85% 0 in WeatherDisplay:10.37 W/m2 CLR
08:14 57.9 °F 53.4 °F 30.2 in Calm     85% 0 in WeatherDisplay:10.37 W/m2 CLR
08:19 58.1 °F 53.6 °F 30.2 in Calm     85% 0 in WeatherDisplay:10.37 W/m2 CLR
08:24 58.3 °F 54 °F 30.2 in NNE 1.2 mph   86% 0 in WeatherDisplay:10.37 W/m2 CLR
08:29 58.3 °F 54.1 °F 30.2 in Calm     86% 0 in WeatherDisplay:10.37 W/m2 CLR
08:34 58.5 °F 54.1 °F 30.2 in Calm     86% 0 in WeatherDisplay:10.37 W/m2 CLR
08:39 58.5 °F 54 °F 30.2 in Calm   0.2 mph 85% 0 in WeatherDisplay:10.37 W/m2 CLR
08:44 58.5 °F 54 °F 30.2 in Calm     85% 0 in WeatherDisplay:10.37 W/m2 CLR
08:50 58.6 °F 54.1 °F 30.2 in NNE 1.2 mph   85% 0 in WeatherDisplay:10.37 W/m2 CLR
08:54 58.6 °F 54.1 °F 30.2 in Calm     85% 0 in WeatherDisplay:10.37 W/m2 CLR
08:59 58.8 °F 54 °F 30.2 in NNE 1.2 mph 0.1 mph 84% 0 in WeatherDisplay:10.37 W/m2 CLR
09:04 59 °F 54.1 °F 30.2 in Calm     84% 0 in WeatherDisplay:10.37 W/m2 CLR
09:09 59.2 °F 54.3 °F 30.2 in Calm     84% 0 in WeatherDisplay:10.37 W/m2 CLR
09:15 59.4 °F 54.5 °F 30.2 in NNE 1.2 mph   84% 0 in WeatherDisplay:10.37 W/m2 CLR
09:20 59.4 °F 54.5 °F 30.2 in NNE 1.2 mph   84% 0 in WeatherDisplay:10.37 W/m2 CLR
09:25 59.5 °F 54.3 °F 30.2 in Calm     83% 0 in WeatherDisplay:10.37 W/m2 CLR
09:30 59.5 °F 54.3 °F 30.2 in Calm     83% 0 in WeatherDisplay:10.37 W/m2 CLR
09:34 59.5 °F 54.3 °F 30.2 in Calm     83% 0 in WeatherDisplay:10.37 W/m2 CLR
09:39 59.5 °F 54.3 °F 30.2 in Calm     83% 0 in WeatherDisplay:10.37 W/m2 CLR
09:44 59.5 °F 54.3 °F 30.2 in WNW 1 mph 0.1 mph 83% 0 in WeatherDisplay:10.37 W/m2 CLR
09:49 59.5 °F 54.3 °F 30.2 in Calm     83% 0 in WeatherDisplay:10.37 W/m2 CLR
09:54 59.7 °F 54.3 °F 30.2 in West 1.2 mph 0.1 mph 82% 0 in WeatherDisplay:10.37 W/m2 CLR
09:59 59.7 °F 54.3 °F 30.2 in WSW 3.5 mph   82% 0 in WeatherDisplay:10.37 W/m2 CLR
10:05 59.9 °F 54.3 °F 30.2 in WSW 1.2 mph   82% 0 in WeatherDisplay:10.37 W/m2 CLR
10:10 59.9 °F 54.3 °F 30.2 in WSW 1.2 mph 0.1 mph 82% 0 in WeatherDisplay:10.37 W/m2 CLR
10:14 59.7 °F 54 °F 30.2 in WSW 2.3 mph   81% 0 in WeatherDisplay:10.37 W/m2 CLR
10:19 59.7 °F 54.1 °F 30.2 in WSW 1.2 mph 0.3 mph 82% 0 in WeatherDisplay:10.37 W/m2 CLR
10:24 59.9 °F 54.7 °F 30.2 in Calm     83% 0 in WeatherDisplay:10.37 W/m2 CLR
10:29 59.9 °F 54.3 °F 30.2 in Calm     82% 0 in WeatherDisplay:10.37 W/m2 CLR
10:34 59.9 °F 54.1 °F 30.2 in WSW 2.3 mph   81% 0 in WeatherDisplay:10.37 W/m2 CLR
10:39 59.9 °F 54.1 °F 30.2 in Calm   0.1 mph 81% 0 in WeatherDisplay:10.37 W/m2 CLR
10:45 59.9 °F 54.1 °F 30.2 in WSW 1.2 mph 0.1 mph 81% 0 in WeatherDisplay:10.37 W/m2 CLR
10:50 59.9 °F 54.1 °F 30.2 in WSW 1.2 mph   81% 0 in WeatherDisplay:10.37 W/m2 CLR
10:55 60.1 °F 54.1 °F 30.2 in SW 2.3 mph 0.3 mph 81% 0 in WeatherDisplay:10.37 W/m2 CLR
10:59 60.8 °F 54.7 °F 30.2 in WSW 3.5 mph   80% 0 in WeatherDisplay:10.37 W/m2 CLR
11:04 61.2 °F 54.7 °F 30.2 in West 1.2 mph   79% 0 in WeatherDisplay:10.37 W/m2 CLR
11:09 61.7 °F 54.9 °F 30.2 in West 1.2 mph   78% 0 in WeatherDisplay:10.37 W/m2 CLR
11:14 61.7 °F 54.3 °F 30.2 in West 1.2 mph 0.1 mph 77% 0 in WeatherDisplay:10.37 W/m2 CLR
11:20 62.2 °F 54.9 °F 30.2 in West 1.2 mph   77% 0 in WeatherDisplay:10.37 W/m2 CLR
11:25 63 °F 55.2 °F 30.2 in West 1.2 mph 0.3 mph 76% 0 in WeatherDisplay:10.37 W/m2 CLR
11:30 63.9 °F 55.8 °F 30.2 in WSW 1.2 mph 0.1 mph 75% 0 in WeatherDisplay:10.37 W/m2 CLR
11:34 64.8 °F 56.3 °F 30.2 in West 1.2 mph 0.2 mph 74% 0 in WeatherDisplay:10.37 W/m2 CLR
11:39 65.3 °F 55.9 °F 30.2 in South 1.2 mph 0.1 mph 72% 0 in WeatherDisplay:10.37 W/m2 CLR
11:44 65.8 °F 56.7 °F 30.2 in South 1.2 mph 0.1 mph 72% 0 in WeatherDisplay:10.37 W/m2 CLR
11:49 66.6 °F 56.5 °F 30.2 in South 2.3 mph 0.1 mph 70% 0 in WeatherDisplay:10.37 W/m2 CLR
11:55 66.7 °F 56.3 °F 30.2 in South 2.3 mph 0.1 mph 69% 0 in WeatherDisplay:10.37 W/m2 CLR
11:59 66.9 °F 56.5 °F 30.2 in Calm     69% 0 in WeatherDisplay:10.37 W/m2 CLR
12:04 67.3 °F 56.5 °F 30.2 in East 3.5 mph   68% 0 in WeatherDisplay:10.37 W/m2 CLR
12:09 68.5 °F 56.7 °F 30.2 in ENE 1.2 mph 0.2 mph 66% 0 in WeatherDisplay:10.37 W/m2 CLR
12:14 69.1 °F 56.7 °F 30.2 in North 2.3 mph   65% 0 in WeatherDisplay:10.37 W/m2 CLR
12:19 69.1 °F 56.8 °F 30.2 in NNW 1.2 mph 0.1 mph 65% 0 in WeatherDisplay:10.37 W/m2 CLR
12:24 69.1 °F 56.3 °F 30.2 in WNW 2.3 mph 0.4 mph 64% 0 in WeatherDisplay:10.37 W/m2 CLR
12:29 69.3 °F 56.1 °F 30.2 in WNW 1.2 mph 0.2 mph 63% 0 in WeatherDisplay:10.37 W/m2 CLR
12:34 69.4 °F 56.7 °F 30.2 in West 1.2 mph 0.2 mph 64% 0 in WeatherDisplay:10.37 W/m2 CLR
12:39 69.1 °F 55.9 °F 30.2 in West 1.2 mph   63% 0 in WeatherDisplay:10.37 W/m2 CLR
12:45 68.5 °F 55.8 °F 30.2 in South 1.2 mph   64% 0 in WeatherDisplay:10.37 W/m2 CLR
12:49 68.7 °F 56.1 °F 30.2 in South 1.2 mph 0.1 mph 64% 0 in WeatherDisplay:10.37 W/m2 CLR
12:55 69.1 °F 56.3 °F 30.2 in South 1.2 mph   64% 0 in WeatherDisplay:10.37 W/m2 CLR
12:59 69.3 °F 56.1 °F 30.1 in SW 3.5 mph 0.8 mph 63% 0 in WeatherDisplay:10.37 W/m2 CLR
13:04 68.5 °F 55.6 °F 30.2 in SW 2.3 mph 0.8 mph 63% 0 in WeatherDisplay:10.37 W/m2 CLR
13:09 68.7 °F 55.8 °F 30.2 in SW 1.2 mph 0.1 mph 63% 0 in WeatherDisplay:10.37 W/m2 CLR
13:15 69.8 °F 56.7 °F 30.1 in SW 1.2 mph 0.2 mph 63% 0 in WeatherDisplay:10.37 W/m2 CLR
13:20 70 °F 55.4 °F 30.1 in NW 1.2 mph 0.1 mph 60% 0 in WeatherDisplay:10.37 W/m2 CLR
13:25 68.9 °F 55.2 °F 30.1 in WNW 1.2 mph   62% 0 in WeatherDisplay:10.37 W/m2 CLR
13:29 68.4 °F 55.6 °F 30.1 in WNW 1.2 mph 0.2 mph 64% 0 in WeatherDisplay:10.37 W/m2 CLR
13:34 68.2 °F 55.6 °F 30.1 in South 2 mph 0.5 mph 64% 0 in WeatherDisplay:10.37 W/m2 CLR
13:40 68.4 °F 55.6 °F 30.1 in NW 3.5 mph 0.7 mph 64% 0 in WeatherDisplay:10.37 W/m2 CLR
13:44 67.8 °F 55.2 °F 30.1 in NW 4.6 mph 1.1 mph 64% 0 in WeatherDisplay:10.37 W/m2 CLR
13:49 68.5 °F 56.5 °F 30.1 in West 2 mph 0.3 mph 65% 0 in WeatherDisplay:10.37 W/m2 CLR
13:54 70.2 °F 56.8 °F 30.1 in West 1.2 mph 0.1 mph 63% 0 in WeatherDisplay:10.37 W/m2 CLR
13:59 71.2 °F 56.7 °F 30.1 in West 2.3 mph 0.1 mph 60% 0 in WeatherDisplay:10.37 W/m2 CLR
14:04 71.6 °F 56.5 °F 30.1 in West 1.2 mph   59% 0 in WeatherDisplay:10.37 W/m2 CLR
14:09 71.1 °F 56.5 °F 30.1 in West 1.2 mph 0.1 mph 60% 0 in WeatherDisplay:10.37 W/m2 CLR
14:15 71.2 °F 56.7 °F 30.1 in SSW 2.3 mph 0.6 mph 60% 0 in WeatherDisplay:10.37 W/m2 CLR
14:20 71.8 °F 56.7 °F 30.1 in East 5 mph 0.7 mph 59% 0 in WeatherDisplay:10.37 W/m2 CLR
14:24 71.8 °F 56.7 °F 30.1 in ENE 3.5 mph 0.2 mph 59% 0 in WeatherDisplay:10.37 W/m2 CLR
14:29 71.4 °F 56.5 °F 30.1 in West 2.3 mph 0.2 mph 59% 0 in WeatherDisplay:10.37 W/m2 CLR
14:34 71.2 °F 55.8 °F 30.1 in West 1.2 mph 0.5 mph 58% 0 in WeatherDisplay:10.37 W/m2 CLR
14:40 71.1 °F 55.9 °F 30.1 in NE 1.2 mph 0.2 mph 59% 0 in WeatherDisplay:10.37 W/m2 CLR
14:45 70.7 °F 55.8 °F 30.1 in East 3.5 mph 0.2 mph 59% 0 in WeatherDisplay:10.37 W/m2 CLR
14:50 70.3 °F 55.8 °F 30.1 in SW 1.2 mph   60% 0 in WeatherDisplay:10.37 W/m2 CLR
14:54 70.3 °F 55.4 °F 30.1 in East 2.3 mph 2 mph 59% 0 in WeatherDisplay:10.37 W/m2 CLR
14:59 71.1 °F 55.9 °F 30.1 in East 1.2 mph   59% 0 in WeatherDisplay:10.37 W/m2 CLR
15:04 71.2 °F 56.1 °F 30.1 in East 1.2 mph   59% 0 in WeatherDisplay:10.37 W/m2 CLR
15:09 71.4 °F 56.8 °F 30.1 in Calm     60% 0 in WeatherDisplay:10.37 W/m2 CLR
15:15 71.2 °F 56.7 °F 30.1 in East 2.3 mph   60% 0 in WeatherDisplay:10.37 W/m2 CLR
15:20 71.1 °F 56.5 °F 30.1 in East 1.2 mph   60% 0 in WeatherDisplay:10.37 W/m2 CLR
15:24 70.7 °F 56.1 °F 30.1 in Calm     60% 0 in WeatherDisplay:10.37 W/m2 CLR
15:29 70.3 °F 56.3 °F 30.1 in East 1.2 mph   61% 0 in WeatherDisplay:10.37 W/m2 CLR
15:34 70 °F 55.9 °F 30.1 in Calm   0.2 mph 61% 0 in WeatherDisplay:10.37 W/m2 CLR
15:39 69.6 °F 55.6 °F 30.1 in Calm     61% 0 in WeatherDisplay:10.37 W/m2 CLR
15:44 69.6 °F 55.6 °F 30.1 in SE 2.3 mph 0.5 mph 61% 0 in WeatherDisplay:10.37 W/m2 CLR
15:49 70 °F 55.8 °F 30.1 in Calm     61% 0 in WeatherDisplay:10.37 W/m2 CLR
15:54 69.6 °F 55.2 °F 30.1 in SE 1.2 mph 0.2 mph 60% 0 in WeatherDisplay:10.37 W/m2 CLR
15:59 69.6 °F 55.6 °F 30.1 in SE 1.2 mph   61% 0 in WeatherDisplay:10.37 W/m2 CLR
16:05 70.2 °F 55.8 °F 30.1 in NE 3.5 mph 0.1 mph 60% 0 in WeatherDisplay:10.37 W/m2 CLR
16:09 70.5 °F 55.6 °F 30.1 in NW 1.2 mph   59% 0 in WeatherDisplay:10.37 W/m2 CLR
16:14 70.7 °F 56.1 °F 30.1 in NW 1.2 mph 0.3 mph 60% 0 in WeatherDisplay:10.37 W/m2 CLR
16:19 70.5 °F 55 °F 30.1 in East 4 mph 1.3 mph 58% 0 in WeatherDisplay:10.37 W/m2 CLR
16:24 70.3 °F 55.2 °F 30.1 in East 1 mph   59% 0 in WeatherDisplay:10.37 W/m2 CLR
16:29 70.3 °F 55.2 °F 30.1 in ENE 1.2 mph 0.2 mph 59% 0 in WeatherDisplay:10.37 W/m2 CLR
16:34 70.2 °F 55.8 °F 30.1 in ENE 1.2 mph   60% 0 in WeatherDisplay:10.37 W/m2 CLR
16:39 70.3 °F 56.1 °F 30.1 in ENE 1.2 mph 0.2 mph 61% 0 in WeatherDisplay:10.37 W/m2 CLR
16:45 70 °F 55.6 °F 30.1 in East 1.2 mph 0.1 mph 60% 0 in WeatherDisplay:10.37 W/m2 CLR
16:49 69.8 °F 55.2 °F 30.1 in East 1.2 mph 0.1 mph 60% 0 in WeatherDisplay:10.37 W/m2 CLR
16:54 69.8 °F 55.2 °F 30.1 in North 2.3 mph 0.1 mph 60% 0 in WeatherDisplay:10.37 W/m2 CLR
Indianola, WA, USA
Compliments of Weather Underground - 2.5 mb